Location: Degersen
(52.2871°N, 9.5716°E)
Time: 14:53:25
(UTC+00:00)

Cosmos 1763 Rocket - Visible Passes

Search period start: 19 April 2026 00:00
Search period end: 29 April 2026 00:00
Orbit: 727 x 774 km, 74.0° (Epoch: 19 April)

Date Brightness Start Highest point End Pass type
(mag) Time Alt. Az. Time Alt. Az. Time Alt. Az.
19 Apr 5.9 00:58:05 10° ESE 01:00:45 14° E 01:03:26 10° ENE visible
19 Apr 3.6 02:37:16 16° SSW 02:41:34 80° ESE 02:46:53 10° NNE visible
20 Apr 4.3 01:56:00 19° S 01:59:28 47° ESE 02:04:32 10° NE visible
20 Apr 4.4 03:36:32 10° WSW 03:41:21 35° NW 03:46:13 10° NNE visible
21 Apr 5.0 01:14:42 18° SE 01:17:30 28° E 01:21:57 10° NE visible
21 Apr 3.8 02:54:37 15° SW 02:58:55 55° WNW 03:04:08 10° NNE visible
22 Apr 5.6 00:33:22 13° ESE 00:35:40 17° E 00:38:55 10° NE visible
22 Apr 3.5 02:13:17 23° SSW 02:16:37 89° WNW 02:21:58 10° NNE visible
23 Apr 4.0 01:31:54 28° S 01:34:29 55° ESE 01:39:39 10° NNE visible
23 Apr 4.6 03:11:49 10° WSW 03:16:29 31° NW 03:21:12 10° NNE visible
24 Apr 4.7 00:50:31 25° SE 00:52:28 33° ESE 00:57:09 10° NE visible
24 Apr 4.0 02:30:24 19° SW 02:34:01 48° WNW 02:39:10 10° NNE visible
25 Apr 5.3 00:09:05 17° ESE 00:10:36 19° E 00:14:18 10° NE visible
25 Apr 3.5 01:48:59 30° SW 01:51:41 78° WNW 01:57:01 10° NNE visible
25 Apr 5.9 23:27:38 10° ESE 23:28:52 11° E 23:30:13 10° ENE visible
26 Apr 3.7 01:07:31 37° S 01:09:30 64° ESE 01:14:45 10° NNE visible
26 Apr 4.8 02:47:25 11° WSW 02:51:39 28° NW 02:56:11 10° N visible
27 Apr 4.4 00:26:02 32° SE 00:27:27 38° ESE 00:32:19 10° NE visible
27 Apr 4.2 02:05:56 21° WSW 02:09:07 42° NW 02:14:11 10° NNE visible
27 Apr 5.1 23:44:32 21° ESE 23:45:33 23° E 23:49:36 10° NE visible
28 Apr 3.6 01:24:25 33° SW 01:26:46 68° WNW 01:32:04 10° NNE visible
28 Apr 5.5 03:06:01 10° W 03:09:30 17° NW 03:13:02 10° N visible
28 Apr 5.6 23:03:00 13° E 23:03:46 13° E 23:06:09 10° ENE visible
